Winston-Salem, NC

6:29 AM EST on December 18, 2017 (GMT -0500)
Smith Reynolds

Weather History for KINT - December, 2013

Change the Weather History Date:

Tuesday, December 10, 2013

  Actual Average Record
Temperature  
Mean Temperature 39 °F -  
Max Temperature 48 °F 50 °F 75 °F (2007)
Min Temperature 28 °F 33 °F 12 °F (1977)
Degree Days  
Heating Degree Days 26    
Moisture  
Dew Point 37 °F    
Average Humidity 84    
Maximum Humidity 100    
Minimum Humidity 44    
Precipitation  
Precipitation 0.30 in - - ()
Sea Level Pressure  
Sea Level Pressure 30.04 in    
Wind  
Wind Speed 3 mph (NNE)    
Max Wind Speed 14 mph    
Max Gust Speed 23 mph    
Visibility 7 miles    
Events Fog , Rain    
Averages and records for this station are not official NWS values.
T = Trace of Precipitation, MM = Missing Value Source: NWS Daily Summary

Daily Weather History Graph

Daily Weather History Graph

Search for Another Location

Airport or City:

Trip Planner

Search our weather history database for the weather conditions in past years. The results will help you decide how hot, cold, wet, or windy it might be!

Date:

Astronomy

Dec. 10, 2013 Rise Set
Actual Time 7:21 AM EST 5:06 PM EST
Civil Twilight 6:52 AM EST 5:35 PM EST
Nautical Twilight 6:20 AM EST 6:07 PM EST
Astronomical Twilight 5:49 AM EST 6:38 PM EST
Moon 12:57 PM EST (12/10) 12:48 AM EST (12/10)
Length of Visible Light 10h 42m
Length of Day
9h 45m
First Quarter, 61% of the Moon is Illuminated
Dec 10
First Quarter
Dec 17
Full
Dec 25
Last Quarter
Jan 1
New
Jan 7
First Quarter

Hourly Weather History & Observations

Time (EST) Temp. Windchill Dew Point Humidity Pressure Visibility Wind Dir Wind Speed Gust Speed Precip Events Conditions
12:16 AM 39.2 °F - 39.2 °F 100% 30.05 in 0.5 mi Calm Calm - N/A Fog Fog
12:30 AM 41.0 °F - 39.2 °F 93% 30.03 in 1.0 mi Calm Calm - N/A   Mist
12:40 AM 41.0 °F - 39.2 °F 93% 30.03 in 0.8 mi Calm Calm - N/A   Mist
12:54 AM 41.0 °F - 39.9 °F 96% 30.03 in 3.0 mi Calm Calm - N/A   Overcast
1:44 AM 41.0 °F - 39.2 °F 93% 30.00 in 8.0 mi Calm Calm - N/A   Overcast
1:54 AM 41.0 °F - 39.9 °F 96% 30.02 in 8.0 mi Calm Calm - N/A   Overcast
2:54 AM 42.1 °F - 39.9 °F 92% 29.99 in 8.0 mi Calm Calm - N/A   Overcast
3:40 AM 42.8 °F - 41.0 °F 93% 29.98 in 3.0 mi Calm Calm - 0.02 in Rain Light Rain
3:54 AM 42.1 °F - 41.0 °F 96% 29.98 in 7.0 mi Calm Calm - 0.02 in   Overcast
4:27 AM 42.8 °F 41.1 °F 41.0 °F 93% 29.95 in 9.0 mi NNE 3.5 mph - N/A   Overcast
4:54 AM 42.1 °F 35.2 °F 39.9 °F 92% 30.00 in 7.0 mi NW 12.7 mph - N/A   Overcast
5:18 AM 42.8 °F 40.1 °F 39.2 °F 87% 29.97 in 3.0 mi North 4.6 mph - 0.05 in Rain Rain
5:34 AM 42.8 °F 41.1 °F 41.0 °F 93% 29.95 in 4.0 mi East 3.5 mph - 0.06 in Rain Light Rain
5:54 AM 42.1 °F 39.2 °F 39.9 °F 92% 29.95 in 4.0 mi East 4.6 mph - 0.07 in Rain Light Rain
6:09 AM 42.8 °F 41.1 °F 41.0 °F 93% 29.94 in 6.0 mi NE 3.5 mph - 0.00 in   Overcast
6:22 AM 42.8 °F - 41.0 °F 93% 29.94 in 6.0 mi Calm Calm - 0.00 in   Overcast
6:54 AM 43.0 °F 40.3 °F 41.0 °F 93% 29.95 in 3.0 mi NNE 4.6 mph - 0.01 in Rain Light Rain
7:03 AM 42.8 °F 40.1 °F 41.0 °F 93% 29.93 in 2.0 mi NE 4.6 mph - 0.01 in Rain Light Rain
7:17 AM 42.8 °F 39.3 °F 41.0 °F 93% 29.93 in 4.0 mi NNE 5.8 mph - 0.02 in Rain Light Rain
7:35 AM 42.8 °F 38.6 °F 41.0 °F 93% 29.93 in 2.5 mi NNE 6.9 mph - 0.07 in Rain Heavy Rain
7:44 AM 42.8 °F 39.3 °F 41.0 °F 93% 29.96 in 4.0 mi North 5.8 mph - 0.11 in Rain Rain
7:52 AM 42.8 °F 38.0 °F 41.0 °F 93% 29.96 in 2.5 mi North 8.1 mph - 0.16 in Rain Rain
7:54 AM 43.0 °F 39.5 °F 41.0 °F 93% 29.96 in 2.5 mi NNE 5.8 mph - 0.16 in Rain Rain
8:01 AM 42.8 °F 40.1 °F 41.0 °F 93% 29.96 in 7.0 mi NNE 4.6 mph - 0.00 in Rain Light Rain
8:22 AM 42.8 °F 39.3 °F 41.0 °F 93% 29.95 in 8.0 mi NE 5.8 mph - 0.02 in Rain Light Rain
8:43 AM 42.8 °F 39.3 °F 41.0 °F 93% 29.96 in 4.0 mi NE 5.8 mph - 0.03 in Rain Light Rain
8:54 AM 43.0 °F 39.5 °F 41.0 °F 93% 29.97 in 9.0 mi NNE 5.8 mph - 0.03 in   Overcast
9:24 AM 42.8 °F 37.0 °F 41.0 °F 93% 29.96 in 2.0 mi NE 10.4 mph - 0.01 in Rain Light Rain
9:39 AM 42.8 °F 40.1 °F 41.0 °F 93% 29.97 in 4.0 mi NE 4.6 mph - 0.01 in Rain Light Rain
9:54 AM 43.0 °F 40.3 °F 41.0 °F 93% 29.99 in 6.0 mi ENE 4.6 mph - 0.01 in   Overcast
10:36 AM 42.8 °F 38.6 °F 39.2 °F 87% 29.97 in 10.0 mi ENE 6.9 mph - N/A   Overcast
10:54 AM 43.0 °F 38.2 °F 41.0 °F 93% 30.01 in 10.0 mi NNE 8.1 mph - N/A   Overcast
11:54 AM 43.0 °F 38.8 °F 39.9 °F 89% 30.04 in 10.0 mi North 6.9 mph - N/A   Overcast
12:54 PM 44.1 °F 41.5 °F 41.0 °F 89% 30.06 in 10.0 mi NNE 4.6 mph - N/A   Overcast
1:14 PM 44.6 °F 43.1 °F 41.0 °F 87% 30.06 in 10.0 mi North 3.5 mph - N/A   Overcast
1:31 PM 44.6 °F - 41.0 °F 87% 30.05 in 10.0 mi Calm Calm - N/A   Overcast
1:54 PM 46.9 °F - 42.1 °F 83% 30.06 in 10.0 mi NW 3.5 mph - N/A   Partly Cloudy
2:54 PM 48.9 °F - 30.9 °F 50% 30.08 in 10.0 mi NNW 13.8 mph 23.0 mph N/A   Scattered Clouds
3:54 PM 46.9 °F - 27.0 °F 46% 30.13 in 10.0 mi NW 13.8 mph 21.9 mph N/A   Clear
4:54 PM 43.0 °F 36.8 °F 24.1 °F 47% 30.17 in 10.0 mi NW 11.5 mph 19.6 mph N/A   Clear
5:54 PM 39.9 °F 32.9 °F 24.1 °F 53% 30.22 in 10.0 mi NW 11.5 mph 19.6 mph N/A   Clear
6:54 PM 37.0 °F 32.4 °F 23.0 °F 57% 30.26 in 10.0 mi North 5.8 mph - N/A   Clear
7:54 PM 37.0 °F 31.0 °F 18.0 °F 46% 30.27 in 10.0 mi NW 8.1 mph - N/A   Clear
8:54 PM 36.0 °F 33.3 °F 16.0 °F 44% 30.29 in 10.0 mi WNW 3.5 mph - N/A   Clear
9:54 PM 30.0 °F - 19.9 °F 66% 30.31 in 10.0 mi Calm Calm - N/A   Clear
10:54 PM 30.0 °F - 21.0 °F 69% 30.32 in 10.0 mi Calm Calm - N/A   Clear
11:54 PM 28.9 °F - 21.0 °F 72% 30.32 in 10.0 mi Calm Calm - N/A   Clear